DW1996 Weather Reports


Display with metric or nautical units.
time (UTC)temp
F
wind
direction
speed
MPH
gust
MPH
rain 1hr
in
rain 24hr
in
rain mn
in
humidity
%
barometer
mb
20260510174541 84 134 5.0 14.0 0.00 0.00 0.00 78 1011.1
20260510173038 85 150 6.0 15.0 0.00 0.00 0.00 77 1011.1
20260510171538 85 119 7.0 18.0 0.00 0.00 0.00 77 1011.1
20260510170041 85 134 6.0 13.0 0.00 0.00 0.00 78 1011.0
20260510164544 85 123 2.0 9.0 0.00 0.03 0.00 79 1010.6
20260510163033 84 128 4.0 12.0 0.00 0.03 0.00 79 1010.6
20260510161531 85 145 3.0 11.0 0.00 0.03 0.00 78 1010.6
20260510160029 86 130 2.0 11.0 0.00 0.03 0.00 77 1010.4
20260510154542 86 113 4.0 12.0 0.00 0.15 0.00 78 1010.3
20260510153027 86 110 5.0 11.0 0.00 0.15 0.00 78 1010.2
20260510151524 85 105 3.0 9.0 0.00 0.15 0.00 80 1010.2
20260510150023 85 42 4.0 8.0 0.00 0.15 0.00 80 1010.1
20260510144527 84 137 2.0 9.0 0.00 0.15 0.00 83 1010.2
20260510143017 83 140 3.0 9.0 0.00 0.15 0.00 86 1010.2
20260510141512 82 111 2.0 12.0 0.00 0.15 0.00 88 1010.2
20260510140010 80 101 3.0 11.0 0.00 0.15 0.00 89 1010.3
20260510134505 80 83 3.0 9.0 0.00 0.15 0.00 89 1010.3
20260510133100 80 122 3.0 9.0 0.00 0.15 0.00 89 1010.1
20260510133001 80 128 2.0 8.0 0.00 0.15 0.00 89 1010.1
20260510131559 79 113 0.0 6.0 0.00 0.15 0.00 89 1010.1
20260510130112 79 106 1.0 8.0 0.00 0.15 0.00 89 1010.0
20260510124602 79 132 2.0 9.0 0.00 0.15 0.00 89 1009.9
20260510123057 79 111 2.0 8.0 0.00 0.15 0.00 89 1009.7
20260510121552 80 159 1.0 9.0 0.00 0.15 0.00 89 1009.5
20260510120051 80 97 5.0 11.0 0.00 0.15 0.00 89 1009.4
20260510114545 80 92 5.0 10.0 0.00 0.15 0.00 89 1009.1
20260510113045 80 74 2.0 6.0 0.00 0.15 0.00 88 1008.9
20260510111542 79 92 3.0 6.0 0.00 0.15 0.00 88 1008.7
20260510110039 79 132 1.0 5.0 0.00 0.15 0.00 88 1008.5
20260510104537 79 105 0.0 2.0 0.00 0.15 0.00 89 1008.4
20260510103037 78 97 0.0 2.0 0.00 0.15 0.00 89 1008.2
20260510101536 78 138 0.0 0.0 0.00 0.15 0.00 89 1008.2
20260510100034 78 111 0.0 0.0 0.00 0.15 0.00 89 1008.4
20260510094536 78 182 0.0 0.0 0.00 0.15 0.00 89 1008.6
20260510093033 78 182 0.0 0.0 0.00 0.15 0.00 89 1008.4
20260510091533 78 182 0.0 0.0 0.00 0.15 0.00 89 1008.3
20260510090032 77 182 0.0 0.0 0.00 0.15 0.00 89 1008.2
20260510084534 78 214 0.0 3.0 0.00 0.15 0.00 89 1008.1
20260510083028 78 191 0.0 2.0 0.00 0.15 0.00 89 1008.4
20260510081526 78 188 1.0 3.0 0.00 0.15 0.00 89 1008.6
20260510080033 78 189 1.0 5.0 0.00 0.15 0.00 88 1008.6
20260510074521 78 203 1.0 4.0 0.00 0.15 0.00 88 1008.9
20260510073027 78 188 0.0 7.0 0.00 0.15 0.00 88 1009.0
20260510071519 78 184 2.0 6.0 0.00 0.15 0.00 87 1009.2
20260510070018 78 174 3.0 7.0 0.00 0.15 0.00 87 1009.3
20260510064536 78 176 3.0 7.0 0.00 0.15 0.00 87 1009.3
20260510063016 78 163 3.0 8.0 0.00 0.15 0.00 87 1009.4
20260510061516 78 147 3.0 10.0 0.00 0.15 0.00 86 1009.2
20260510060013 78 172 3.0 9.0 0.00 0.15 0.00 86 1009.1
20260510054512 78 159 5.0 11.0 0.00 0.15 0.00 86 1009.3
20260510053024 79 197 5.0 12.0 0.00 0.15 0.00 86 1009.5
20260510051507 79 120 5.0 12.0 0.00 0.15 0.00 86 1009.6
20260510050002 79 136 5.0 11.0 0.00 0.15 0.15 85 1009.4
20260510044502 79 128 4.0 12.0 0.00 0.15 0.15 86 1009.4
20260510043002 79 153 3.0 11.0 0.00 0.15 0.15 85 1009.6
20260510041503 79 116 4.0 9.0 0.00 0.15 0.15 85 1009.7
20260510040002 79 91 2.0 8.0 0.00 0.15 0.15 86 1009.5
20260510034618 79 107 1.0 9.0 0.00 0.15 0.15 87 1009.3
20260510033106 79 74 6.0 12.0 0.00 0.15 0.15 87 1008.7
20260510031601 79 96 7.0 12.0 0.00 0.15 0.15 87 1008.6
20260510030109 79 92 5.0 12.0 0.00 0.15 0.15 87 1008.5
20260510024600 79 93 8.0 12.0 0.00 0.15 0.15 87 1008.2
20260510023057 79 75 7.0 12.0 0.00 0.15 0.15 87 1008.1
20260510021603 79 76 7.0 14.0 0.00 0.15 0.15 87 1007.9
20260510020057 79 87 9.0 14.0 0.00 0.15 0.15 87 1007.7
20260510014601 79 78 9.0 15.0 0.00 0.15 0.15 86 1007.6
20260510013114 80 113 9.0 14.0 0.00 0.15 0.15 86 1007.4
20260510011555 80 92 10.0 14.0 0.00 0.15 0.15 86 1007.3
20260510010054 80 99 9.0 15.0 0.00 0.15 0.15 85 1007.5
20260510004553 80 71 7.0 17.0 0.00 0.15 0.15 85 1007.2
20260510003103 81 77 11.0 15.0 0.00 0.15 0.15 84 1007.2
20260510001552 81 74 12.0 19.0 0.00 0.15 0.15 83 1007.2
20260510000109 81 77 15.0 20.0 0.00 0.15 0.15 82 1007.2
20260509234550 81 65 16.0 20.0 0.00 0.15 0.15 82 1007.0
20260509233050 81 74 16.0 19.0 0.00 0.15 0.15 81 1006.8
20260509231553 81 61 15.0 18.0 0.00 0.15 0.15 81 1006.6
20260509230050 81 61 14.0 20.0 0.00 0.15 0.15 82 1006.8
20260509224548 81 50 13.0 17.0 0.00 0.15 0.15 81 1006.9
20260509223048 81 52 13.0 17.0 0.00 0.15 0.15 80 1006.8
20260509221554 81 53 12.0 15.0 0.00 0.15 0.15 80 1006.9
20260509220047 82 51 11.0 13.0 0.00 0.15 0.15 80 1007.1
20260509214558 81 69 10.0 14.0 0.00 0.15 0.15 79 1007.2
20260509213045 81 69 10.0 13.0 0.00 0.15 0.15 80 1007.3
20260509211547 82 67 11.0 14.0 0.00 0.15 0.15 79 1007.5
20260509210048 82 55 10.0 14.0 0.00 0.15 0.15 79 1007.6
20260509204542 82 67 11.0 15.0 0.00 0.15 0.15 78 1007.8
20260509203043 84 71 10.0 15.0 0.00 0.15 0.15 76 1007.8
20260509201543 85 69 12.0 15.0 0.00 0.15 0.15 73 1007.8
20260509200047 86 98 1.0 9.0 0.00 0.15 0.15 72 1007.8
20260509193032 85 110 1.0 9.0 0.00 0.15 0.15 72 1007.5
20260509191524 84 120 3.0 10.0 0.00 0.15 0.15 73 1007.6
20260509183025 84 96 3.0 9.0 0.00 0.15 0.15 77 1007.3
20260509181523 83 107 1.0 12.0 0.00 0.15 0.15 77 1007.3
20260509180018 81 132 3.0 12.0 0.00 0.15 0.15 79 1007.2